Weather History for Jaffrey, NH

Change the Weather History Date:

Friday, December 14, 2012

  Actual Average Record
Temperature  
Mean Temperature 30 °F -  
Max Temperature 42 °F 34 °F 50 °F (2006)
Min Temperature 19 °F 19 °F -8 °F (2005)
Degree Days  
Heating Degree Days 34    
Moisture  
Dew Point 21 °F    
Average Humidity 67    
Maximum Humidity 89    
Minimum Humidity 37    
Precipitation  
Precipitation 0.00 in - - ()
Sea Level Pressure  
Sea Level Pressure 30.19 in    
Wind  
Wind Speed 3 mph (WSW)    
Max Wind Speed 10 mph    
Max Gust Speed 17 mph    
Visibility 10 miles    
Events      
Averages and records for this station are not official NWS values.
T = Trace of Precipitation, MM = Missing Value Source: NWS Daily Summary

Daily Weather History Graph

Daily Weather History Graph

Search for Another Location

Airport:

Trip Planner

Search our weather history database for the weather conditions in past years. The results will help you decide how hot, cold, wet, or windy it might be!

Date:

Astronomy

Dec. 14, 2012 Rise Set
Actual Time 7:11 AM EST 4:14 PM EST
Civil Twilight 6:39 AM EST 4:46 PM EST
Nautical Twilight 6:03 AM EST 5:22 PM EST
Astronomical Twilight 5:28 AM EST 5:56 PM EST
Moon 8:12 AM EST (12/14) 6:05 PM EST (12/14)
Length of Visible Light 10h 07m
Length of Day
9h 03m
Waxing Crescent, 3% of the Moon is Illuminated
Dec 14
Waxing Crescent
Dec 20
First Quarter
Dec 28
Full
Jan 4
Last Quarter
Jan 11
New

Hourly Weather History & Observations

Time (EST) Temp. Windchill Dew Point Humidity Pressure Visibility Wind Dir Wind Speed Gust Speed Precip Events Conditions
12:52 AM 21.0 °F - 18.0 °F 88% 30.28 in 9.0 mi Calm Calm - N/A   Clear
1:52 AM 21.0 °F - 18.0 °F 88% 30.27 in 9.0 mi Calm Calm - N/A   Clear
2:52 AM 21.0 °F - 17.1 °F 85% 30.26 in 9.0 mi Calm Calm - N/A   Clear
3:52 AM 19.9 °F 14.9 °F 17.1 °F 89% 30.25 in 10.0 mi South 3.5 mph - N/A   Clear
4:52 AM 24.1 °F - 19.9 °F 84% 30.23 in 10.0 mi Calm Calm - N/A   Clear
5:52 AM 26.1 °F 18.4 °F 21.0 °F 81% 30.23 in 10.0 mi SSW 6.9 mph - N/A   Clear
6:52 AM 26.1 °F 18.4 °F 21.0 °F 81% 30.22 in 10.0 mi SSW 6.9 mph - N/A   Clear
7:52 AM 26.1 °F 20.5 °F 21.0 °F 81% 30.21 in 10.0 mi SSW 4.6 mph - N/A   Clear
8:52 AM 28.0 °F 20.8 °F 21.9 °F 78% 30.21 in 10.0 mi SSW 6.9 mph - N/A   Clear
10:52 AM 34.0 °F 27.2 °F 23.0 °F 64% 30.17 in 10.0 mi South 8.1 mph - N/A   Clear
11:52 AM 37.9 °F 30.9 °F 21.0 °F 51% 30.13 in 10.0 mi SSW 10.4 mph - N/A   Clear
12:52 PM 42.1 °F 36.6 °F 17.1 °F 37% 30.10 in 10.0 mi West 9.2 mph - N/A   Clear
1:52 PM 42.1 °F 36.6 °F 18.0 °F 38% 30.09 in 10.0 mi West 9.2 mph 17.3 mph N/A   Clear
2:52 PM 42.1 °F 37.1 °F 19.9 °F 41% 30.11 in 10.0 mi WNW 8.1 mph - N/A   Clear
3:52 PM 39.9 °F 36.7 °F 21.9 °F 49% 30.14 in 10.0 mi Variable 4.6 mph - N/A   Clear
4:52 PM 37.0 °F 32.4 °F 21.9 °F 54% 30.14 in 10.0 mi NW 5.8 mph - N/A   Clear
5:52 PM 37.9 °F - 21.9 °F 53% 30.16 in 10.0 mi Calm Calm - N/A   Overcast
6:52 PM 37.0 °F - 23.0 °F 57% 30.17 in 10.0 mi Calm Calm - N/A   Overcast
7:52 PM 37.0 °F 34.5 °F 24.1 °F 59% 30.18 in 10.0 mi Variable 3.5 mph - N/A   Overcast
8:52 PM 35.1 °F 32.2 °F 24.1 °F 64% 30.18 in 10.0 mi Variable 3.5 mph - N/A   Clear
9:52 PM 33.1 °F 28.7 °F 25.0 °F 72% 30.19 in 10.0 mi West 4.6 mph - N/A   Overcast
10:52 PM 36.0 °F 31.1 °F 25.0 °F 64% 30.18 in 10.0 mi NW 5.8 mph - N/A   Mostly Cloudy
11:52 PM 32.0 °F 28.7 °F 25.0 °F 75% 30.17 in 10.0 mi NW 3.5 mph - N/A   Scattered Clouds